Location: Patricia
(50.7000°N, 111.6833°W)
Time: 10:33:14
(UTC+00:00)

Tiangong - Visible Passes

Search period start: 05 December 2021 00:00
Search period end: 15 December 2021 00:00
Orbit: 380 x 384 km, 41.5° (Epoch: 04 December)

Date Brightness Start Highest point End Pass type
(mag) Time Alt. Az. Time Alt. Az. Time Alt. Az.
12 Dec 3.6 01:20:10 10° SSW 01:21:39 13° SSE 01:22:09 12° SSE visible
13 Dec 3.7 01:55:16 10° SW 01:56:33 15° SSW 01:56:33 15° SSW visible
14 Dec 3.6 00:54:58 10° SSW 00:56:50 15° S 00:58:42 10° SE visible
